Location: Helion Bumpstead
(52.0500°N, 0.4000°E)
Time: 09:09:48
(UTC+00:00)

NOSS 3-1 (C) - Pass Details

Date: 15 November 2025
Orbit: 619 x 1583 km, 63.4° (Epoch: 01 December)

Event Time Altitude Azimuth Distance (km) Brightness Sun altitude
Exits shadow 04:37:49 45° 328° (NNW) 1,115 3.5 -24.5°
Maximum altitude 04:37:56 45° 332° (NNW) 1,118 3.6 -24.5°
Drops below altitude 10° 04:43:57 10° 45° (NE) 2,752 6.4 -23.5°
Sets 04:47:01 0° 51° (NE) 3,872 7.4 -23.1°
